Time,TemperatureF,DewpointF,PressureIn,WindDirection,WindDirectionDegrees,WindSpeedMPH,WindSpeedGustMPH,Humidity,HourlyPrecipIn,Conditions,Clouds,dailyrainin,SoftwareType,DateUTC
2013-03-22 00:03:00,24.0,9.0,-100.00,NNW,333,5.0,9.0,52,0.00,,,0.00,,2013-03-22 04:03:00,
2013-03-22 00:12:00,24.0,9.0,-100.00,NNW,333,5.0,9.0,52,0.00,,,0.00,,2013-03-22 04:12:00,
2013-03-22 00:23:00,24.0,9.0,-100.00,NNW,333,5.0,9.0,52,0.00,,,0.00,,2013-03-22 04:23:00,
2013-03-22 00:32:00,25.0,9.0,-100.00,NNW,329,5.0,12.0,51,0.00,,,0.00,,2013-03-22 04:32:00,
2013-03-22 00:43:00,25.0,9.0,-100.00,NNW,329,5.0,12.0,51,0.00,,,0.00,,2013-03-22 04:43:00,
2013-03-22 00:52:00,24.0,9.0,-100.00,NNW,333,5.0,12.0,52,0.00,,,0.00,,2013-03-22 04:52:00,
2013-03-22 01:02:00,25.0,9.0,-100.00,NNW,328,4.0,8.0,52,0.00,,,0.00,,2013-03-22 05:02:00,
2013-03-22 01:12:00,25.0,9.0,-100.00,NNW,328,4.0,8.0,52,0.00,,,0.00,,2013-03-22 05:12:00,
2013-03-22 01:22:00,25.0,9.0,-100.00,NNW,332,4.0,8.0,51,0.00,,,0.00,,2013-03-22 05:22:00,
2013-03-22 01:32:00,25.0,9.0,-100.00,NNW,330,6.0,11.0,51,0.00,,,0.00,,2013-03-22 05:32:00,
2013-03-22 01:42:00,25.0,9.0,-100.00,NNW,330,6.0,11.0,51,0.00,,,0.00,,2013-03-22 05:42:00,
2013-03-22 01:52:00,25.0,9.0,-100.00,NNW,336,6.0,12.0,50,0.00,,,0.00,,2013-03-22 05:52:00,
2013-03-22 02:02:00,25.0,9.0,-100.00,NNW,339,6.0,14.0,50,0.00,,,0.00,,2013-03-22 06:02:00,
2013-03-22 02:13:00,25.0,9.0,-100.00,NNW,339,6.0,14.0,50,0.00,,,0.00,,2013-03-22 06:13:00,
2013-03-22 02:22:00,25.0,10.0,-100.00,NNW,332,7.0,12.0,53,0.00,,,0.00,,2013-03-22 06:22:00,
2013-03-22 02:32:00,25.0,10.0,-100.00,NNW,333,6.0,13.0,53,0.00,,,0.00,,2013-03-22 06:32:00,
2013-03-22 02:42:00,25.0,10.0,-100.00,NNW,333,6.0,13.0,53,0.00,,,0.00,,2013-03-22 06:42:00,
2013-03-22 02:52:00,25.0,10.0,-100.00,NNW,333,6.0,10.0,54,0.00,,,0.00,,2013-03-22 06:52:00,
2013-03-22 03:03:00,25.0,10.0,-100.00,NNW,333,6.0,10.0,54,0.00,,,0.00,,2013-03-22 07:03:00,
2013-03-22 03:12:00,25.0,10.0,-100.00,NNW,333,6.0,10.0,54,0.00,,,0.00,,2013-03-22 07:12:00,
2013-03-22 03:22:00,25.0,10.0,-100.00,NNW,337,5.0,11.0,54,0.00,,,0.00,,2013-03-22 07:22:00,
2013-03-22 03:32:00,24.0,11.0,-100.00,NNW,340,5.0,10.0,56,0.00,,,0.00,,2013-03-22 07:32:00,
2013-03-22 03:42:00,24.0,11.0,-100.00,NNW,340,5.0,10.0,56,0.00,,,0.00,,2013-03-22 07:42:00,
2013-03-22 03:52:00,25.0,11.0,-100.00,NNW,333,6.0,10.0,56,0.00,,,0.00,,2013-03-22 07:52:00,
2013-03-22 04:03:00,25.0,11.0,-100.00,NNW,333,6.0,10.0,56,0.00,,,0.00,,2013-03-22 08:03:00,
2013-03-22 04:13:00,25.0,11.0,-100.00,NNW,333,6.0,10.0,56,0.00,,,0.00,,2013-03-22 08:13:00,
2013-03-22 04:22:00,25.0,11.0,-100.00,NNW,336,6.0,10.0,55,0.00,,,0.00,,2013-03-22 08:22:00,
2013-03-22 04:32:00,25.0,11.0,-100.00,NNW,335,7.0,12.0,55,0.00,,,0.00,,2013-03-22 08:32:00,
2013-03-22 04:42:00,25.0,11.0,-100.00,NNW,335,7.0,12.0,55,0.00,,,0.00,,2013-03-22 08:42:00,
2013-03-22 04:52:00,25.0,11.0,-100.00,NNW,332,8.0,17.0,55,0.00,,,0.00,,2013-03-22 08:52:00,
2013-03-22 05:02:00,25.0,11.0,-100.00,NNW,336,7.0,13.0,54,0.00,,,0.00,,2013-03-22 09:02:00,
2013-03-22 05:12:00,25.0,11.0,-100.00,NNW,336,7.0,13.0,54,0.00,,,0.00,,2013-03-22 09:12:00,
2013-03-22 05:22:00,25.0,11.0,-100.00,NNW,337,6.0,12.0,54,0.00,,,0.00,,2013-03-22 09:22:00,
2013-03-22 05:32:00,25.0,11.0,-100.00,NNW,335,6.0,13.0,55,0.00,,,0.00,,2013-03-22 09:32:00,
2013-03-22 05:42:00,25.0,11.0,-100.00,NNW,335,6.0,13.0,55,0.00,,,0.00,,2013-03-22 09:42:00,
2013-03-22 05:53:00,25.0,11.0,-100.00,NNW,329,5.0,11.0,55,0.00,,,0.00,,2013-03-22 09:53:00,
2013-03-22 06:04:00,25.0,11.0,-100.00,NNW,329,5.0,11.0,55,0.00,,,0.00,,2013-03-22 10:04:00,
2013-03-22 06:12:00,25.0,11.0,-100.00,NNW,329,5.0,11.0,55,0.00,,,0.00,,2013-03-22 10:12:00,
2013-03-22 06:23:00,25.0,12.0,-100.00,NW,326,6.0,12.0,56,0.00,,,0.00,,2013-03-22 10:23:00,
2013-03-22 06:33:00,26.0,12.0,-100.00,NNW,329,6.0,11.0,56,0.00,,,0.00,,2013-03-22 10:33:00,
2013-03-22 06:42:00,26.0,12.0,-100.00,NNW,329,6.0,11.0,56,0.00,,,0.00,,2013-03-22 10:42:00,
2013-03-22 06:52:00,26.0,12.0,-100.00,NNW,328,7.0,13.0,55,0.00,,,0.00,,2013-03-22 10:52:00,
2013-03-22 07:03:00,26.0,12.0,-100.00,NNW,328,6.0,13.0,55,0.00,,,0.00,,2013-03-22 11:03:00,
2013-03-22 07:12:00,26.0,12.0,-100.00,NNW,328,6.0,13.0,55,0.00,,,0.00,,2013-03-22 11:12:00,
2013-03-22 07:22:00,25.0,12.0,-100.00,NW,326,5.0,10.0,56,0.00,,,0.00,,2013-03-22 11:22:00,
2013-03-22 07:33:00,25.0,12.0,-100.00,NW,322,5.0,10.0,57,0.00,,,0.00,,2013-03-22 11:33:00,
2013-03-22 07:42:00,25.0,12.0,-100.00,NW,322,5.0,10.0,57,0.00,,,0.00,,2013-03-22 11:42:00,
2013-03-22 07:52:00,25.0,12.0,-100.00,NNW,333,5.0,9.0,57,0.00,,,0.00,,2013-03-22 11:52:00,
2013-03-22 08:02:00,25.0,12.0,-100.00,NNW,333,5.0,9.0,57,0.00,,,0.00,,2013-03-22 12:02:00,
2013-03-22 08:12:00,25.0,12.0,-100.00,NNW,333,5.0,9.0,57,0.00,,,0.00,,2013-03-22 12:12:00,
2013-03-22 08:22:00,26.0,12.0,-100.00,NNW,328,6.0,14.0,56,0.00,,,0.00,,2013-03-22 12:22:00,
2013-03-22 08:32:00,26.0,12.0,-100.00,NW,323,4.0,7.0,56,0.00,,,0.00,,2013-03-22 12:32:00,
2013-03-22 08:42:00,26.0,12.0,-100.00,NW,323,4.0,7.0,56,0.00,,,0.00,,2013-03-22 12:42:00,
2013-03-22 08:52:00,27.0,13.0,-100.00,NNW,336,4.0,8.0,53,0.00,,,0.00,,2013-03-22 12:52:00,
2013-03-22 09:02:00,27.0,13.0,-100.00,NNW,336,4.0,8.0,53,0.00,,,0.00,,2013-03-22 13:02:00,
2013-03-22 09:13:00,27.0,13.0,-100.00,NNW,336,4.0,8.0,53,0.00,,,0.00,,2013-03-22 13:13:00,
2013-03-22 09:22:00,28.0,13.0,-100.00,NNW,329,7.0,15.0,52,0.00,,,0.00,,2013-03-22 13:22:00,
2013-03-22 09:32:00,30.0,13.0,-100.00,NNW,329,7.0,15.0,50,0.00,,,0.00,,2013-03-22 13:32:00,
2013-03-22 09:42:00,30.0,13.0,-100.00,NNW,329,7.0,15.0,50,0.00,,,0.00,,2013-03-22 13:42:00,
2013-03-22 09:53:00,31.0,14.0,-100.00,NW,323,9.0,17.0,49,0.00,,,0.00,,2013-03-22 13:53:00,
2013-03-22 10:03:00,31.0,13.0,-100.00,NW,326,8.0,16.0,46,0.00,,,0.00,,2013-03-22 14:03:00,
2013-03-22 10:12:00,31.0,13.0,-100.00,NW,326,8.0,16.0,46,0.00,,,0.00,,2013-03-22 14:12:00,
2013-03-22 10:22:00,31.0,13.0,-100.00,NW,323,11.0,21.0,46,0.00,,,0.00,,2013-03-22 14:22:00,
2013-03-22 10:32:00,32.0,13.0,-100.00,NW,325,8.0,17.0,45,0.00,,,0.00,,2013-03-22 14:32:00,
2013-03-22 10:43:00,32.0,13.0,-100.00,NW,325,8.0,17.0,45,0.00,,,0.00,,2013-03-22 14:43:00,
2013-03-22 10:52:00,34.0,13.0,-100.00,NNW,328,11.0,20.0,42,0.00,,,0.00,,2013-03-22 14:52:00,
2013-03-22 11:03:00,34.0,13.0,-100.00,NNW,328,11.0,20.0,42,0.00,,,0.00,,2013-03-22 15:03:00,
2013-03-22 11:12:00,34.0,13.0,-100.00,NNW,328,11.0,20.0,42,0.00,,,0.00,,2013-03-22 15:12:00,
2013-03-22 11:22:00,33.0,13.0,-100.00,NNW,328,11.0,23.0,43,0.00,,,0.00,,2013-03-22 15:22:00,
2013-03-22 11:33:00,35.0,13.0,-100.00,NW,325,9.0,18.0,40,0.00,,,0.00,,2013-03-22 15:33:00,
2013-03-22 11:43:00,35.0,13.0,-100.00,NW,325,9.0,18.0,40,0.00,,,0.00,,2013-03-22 15:43:00,
2013-03-22 11:53:00,35.0,13.0,-100.00,NW,325,9.0,22.0,40,0.00,,,0.00,,2013-03-22 15:53:00,
2013-03-22 12:03:00,35.0,13.0,-100.00,NW,318,11.0,26.0,39,0.00,,,0.00,,2013-03-22 16:03:00,
2013-03-22 12:13:00,35.0,13.0,-100.00,NW,318,11.0,26.0,39,0.00,,,0.00,,2013-03-22 16:13:00,
2013-03-22 12:23:00,35.0,12.0,-100.00,NW,325,8.0,16.0,38,0.00,,,0.00,,2013-03-22 16:23:00,
2013-03-22 12:32:00,37.0,13.0,-100.00,NW,320,8.0,20.0,37,0.00,,,0.00,,2013-03-22 16:32:00,
2013-03-22 12:42:00,37.0,13.0,-100.00,NW,320,8.0,20.0,37,0.00,,,0.00,,2013-03-22 16:42:00,
2013-03-22 12:52:00,38.0,13.0,-100.00,NW,325,9.0,16.0,36,0.00,,,0.00,,2013-03-22 16:52:00,
2013-03-22 13:03:00,35.0,12.0,-100.00,NW,313,10.0,17.0,38,0.00,,,0.00,,2013-03-22 17:03:00,
2013-03-22 13:12:00,35.0,12.0,-100.00,NW,313,10.0,17.0,38,0.00,,,0.00,,2013-03-22 17:12:00,
2013-03-22 13:23:00,39.0,13.0,-100.00,NW,326,10.0,19.0,34,0.00,,,0.00,,2013-03-22 17:23:00,
2013-03-22 13:32:00,40.0,13.0,-100.00,NW,325,8.0,17.0,34,0.00,,,0.00,,2013-03-22 17:32:00,
2013-03-22 13:42:00,40.0,13.0,-100.00,NW,325,8.0,17.0,34,0.00,,,0.00,,2013-03-22 17:42:00,
2013-03-22 13:53:00,40.0,13.0,-100.00,NW,320,7.0,16.0,32,0.00,,,0.00,,2013-03-22 17:53:00,
2013-03-22 14:02:00,40.0,14.0,-100.00,NW,316,11.0,19.0,35,0.00,,,0.00,,2013-03-22 18:02:00,
2013-03-22 14:12:00,40.0,14.0,-100.00,NW,316,11.0,19.0,35,0.00,,,0.00,,2013-03-22 18:12:00,
2013-03-22 14:22:00,42.0,13.0,-100.00,NNW,332,9.0,18.0,31,0.00,,,0.00,,2013-03-22 18:22:00,
2013-03-22 14:33:00,41.0,15.0,-100.00,NW,325,10.0,21.0,34,0.00,,,0.00,,2013-03-22 18:33:00,
2013-03-22 14:42:00,41.0,15.0,-100.00,NW,325,10.0,21.0,34,0.00,,,0.00,,2013-03-22 18:42:00,
2013-03-22 14:52:00,43.0,13.0,-100.00,NNW,332,6.0,15.0,29,0.00,,,0.00,,2013-03-22 18:52:00,
2013-03-22 15:02:00,43.0,13.0,-100.00,NW,323,8.0,16.0,29,0.00,,,0.00,,2013-03-22 19:02:00,
2013-03-22 15:12:00,43.0,13.0,-100.00,NW,323,8.0,16.0,29,0.00,,,0.00,,2013-03-22 19:12:00,
2013-03-22 15:22:00,42.0,13.0,-100.00,NW,325,10.0,17.0,30,0.00,,,0.00,,2013-03-22 19:22:00,
2013-03-22 15:32:00,43.0,15.0,-100.00,NW,308,11.0,17.0,32,0.00,,,0.00,,2013-03-22 19:32:00,
2013-03-22 15:43:00,43.0,15.0,-100.00,NW,308,11.0,17.0,32,0.00,,,0.00,,2013-03-22 19:43:00,
2013-03-22 15:52:00,43.0,15.0,-100.00,NW,326,10.0,21.0,31,0.00,,,0.00,,2013-03-22 19:52:00,
2013-03-22 16:02:00,43.0,13.0,-100.00,NW,325,7.0,13.0,29,0.00,,,0.00,,2013-03-22 20:02:00,
2013-03-22 16:13:00,43.0,13.0,-100.00,NW,325,7.0,13.0,29,0.00,,,0.00,,2013-03-22 20:13:00,
2013-03-22 16:22:00,45.0,14.0,-100.00,NNW,332,7.0,12.0,29,0.00,,,0.00,,2013-03-22 20:22:00,
2013-03-22 16:32:00,45.0,14.0,-100.00,NW,325,8.0,17.0,28,0.00,,,0.00,,2013-03-22 20:32:00,
2013-03-22 16:43:00,45.0,14.0,-100.00,NW,325,8.0,17.0,28,0.00,,,0.00,,2013-03-22 20:43:00,
2013-03-22 16:52:00,45.0,15.0,-100.00,NW,322,8.0,21.0,30,0.00,,,0.00,,2013-03-22 20:52:00,
2013-03-22 17:03:00,46.0,15.0,-100.00,NNW,335,6.0,13.0,29,0.00,,,0.00,,2013-03-22 21:03:00,
2013-03-22 17:12:00,46.0,15.0,-100.00,NNW,335,6.0,13.0,29,0.00,,,0.00,,2013-03-22 21:12:00,
2013-03-22 17:22:00,45.0,16.0,-100.00,NW,325,9.0,22.0,31,0.00,,,0.00,,2013-03-22 21:22:00,
2013-03-22 17:33:00,44.0,16.0,-100.00,NW,319,10.0,21.0,31,0.00,,,0.00,,2013-03-22 21:33:00,
2013-03-22 17:43:00,44.0,16.0,-100.00,NW,319,10.0,21.0,31,0.00,,,0.00,,2013-03-22 21:43:00,
2013-03-22 17:53:00,45.0,15.0,-100.00,NW,323,8.0,17.0,29,0.00,,,0.00,,2013-03-22 21:53:00,
2013-03-22 18:03:00,44.0,15.0,-100.00,NW,323,8.0,16.0,30,0.00,,,0.00,,2013-03-22 22:03:00,
2013-03-22 18:12:00,44.0,15.0,-100.00,NW,323,8.0,16.0,30,0.00,,,0.00,,2013-03-22 22:12:00,
2013-03-22 18:23:00,44.0,15.0,-100.00,NW,323,9.0,18.0,31,0.00,,,0.00,,2013-03-22 22:23:00,
2013-03-22 18:32:00,44.0,15.0,-100.00,NW,325,9.0,17.0,31,0.00,,,0.00,,2013-03-22 22:32:00,
2013-03-22 18:43:00,44.0,15.0,-100.00,NW,325,9.0,17.0,31,0.00,,,0.00,,2013-03-22 22:43:00,
2013-03-22 18:53:00,44.0,15.0,-100.00,NW,326,8.0,18.0,31,0.00,,,0.00,,2013-03-22 22:53:00,
2013-03-22 19:02:00,42.0,15.0,-100.00,NW,325,8.0,20.0,32,0.00,,,0.00,,2013-03-22 23:02:00,
2013-03-22 19:12:00,42.0,15.0,-100.00,NW,325,8.0,20.0,32,0.00,,,0.00,,2013-03-22 23:12:00,
2013-03-22 19:22:00,42.0,15.0,-100.00,NW,326,7.0,14.0,33,0.00,,,0.00,,2013-03-22 23:22:00,
2013-03-22 19:32:00,41.0,15.0,-100.00,NNW,329,6.0,12.0,34,0.00,,,0.00,,2013-03-22 23:32:00,
2013-03-22 19:42:00,41.0,15.0,-100.00,NNW,329,6.0,12.0,34,0.00,,,0.00,,2013-03-22 23:42:00,
2013-03-22 19:52:00,40.0,15.0,-100.00,NNW,329,5.0,13.0,36,0.00,,,0.00,,2013-03-22 23:52:00,
2013-03-22 20:02:00,39.0,15.0,-100.00,NNW,329,6.0,13.0,37,0.00,,,0.00,,2013-03-23 00:02:00,
2013-03-22 20:12:00,39.0,15.0,-100.00,NNW,329,6.0,13.0,37,0.00,,,0.00,,2013-03-23 00:12:00,
2013-03-22 20:23:00,38.0,16.0,-100.00,NNW,336,3.0,7.0,40,0.00,,,0.00,,2013-03-23 00:23:00,
2013-03-22 20:33:00,36.0,16.0,-100.00,NNW,337,1.0,4.0,43,0.00,,,0.00,,2013-03-23 00:33:00,
2013-03-22 20:42:00,36.0,16.0,-100.00,NNW,337,1.0,4.0,43,0.00,,,0.00,,2013-03-23 00:42:00,
2013-03-22 20:52:00,36.0,17.0,-100.00,NW,322,3.0,6.0,46,0.00,,,0.00,,2013-03-23 00:52:00,
2013-03-22 21:03:00,34.0,17.0,-100.00,NW,323,4.0,7.0,49,0.00,,,0.00,,2013-03-23 01:03:00,
2013-03-22 21:12:00,34.0,17.0,-100.00,NW,323,4.0,7.0,49,0.00,,,0.00,,2013-03-23 01:12:00,
2013-03-22 21:22:00,34.0,18.0,-100.00,NW,326,4.0,8.0,52,0.00,,,0.00,,2013-03-23 01:22:00,
2013-03-22 21:32:00,34.0,18.0,-100.00,NW,325,4.0,7.0,51,0.00,,,0.00,,2013-03-23 01:32:00,
2013-03-22 21:43:00,34.0,18.0,-100.00,NW,325,4.0,7.0,51,0.00,,,0.00,,2013-03-23 01:43:00,
2013-03-22 21:52:00,33.0,18.0,-100.00,NW,320,4.0,8.0,53,0.00,,,0.00,,2013-03-23 01:52:00,
2013-03-22 22:02:00,33.0,18.0,-100.00,NW,322,4.0,8.0,53,0.00,,,0.00,,2013-03-23 02:02:00,
2013-03-22 22:12:00,33.0,18.0,-100.00,NW,322,4.0,8.0,53,0.00,,,0.00,,2013-03-23 02:12:00,
2013-03-22 22:22:00,32.0,18.0,-100.00,NW,323,4.0,6.0,56,0.00,,,0.00,,2013-03-23 02:22:00,
2013-03-22 22:32:00,31.0,18.0,-100.00,NNW,332,2.0,4.0,57,0.00,,,0.00,,2013-03-23 02:32:00,
2013-03-22 22:42:00,31.0,18.0,-100.00,NNW,332,2.0,4.0,57,0.00,,,0.00,,2013-03-23 02:42:00,
2013-03-22 22:52:00,31.0,18.0,-100.00,NNW,332,2.0,4.0,58,0.00,,,0.00,,2013-03-23 02:52:00,
2013-03-22 23:02:00,31.0,17.0,-100.00,NNW,335,2.0,4.0,56,0.00,,,0.00,,2013-03-23 03:02:00,
2013-03-22 23:12:00,31.0,17.0,-100.00,NNW,335,2.0,4.0,56,0.00,,,0.00,,2013-03-23 03:12:00,
2013-03-22 23:23:00,31.0,18.0,-100.00,NNW,328,2.0,4.0,59,0.00,,,0.00,,2013-03-23 03:23:00,
2013-03-22 23:33:00,30.0,18.0,-100.00,NNW,335,3.0,4.0,61,0.00,,,0.00,,2013-03-23 03:33:00,
2013-03-22 23:43:00,30.0,18.0,-100.00,NNW,335,3.0,4.0,61,0.00,,,0.00,,2013-03-23 03:43:00,
2013-03-22 23:53:00,31.0,18.0,-100.00,NNW,337,2.0,5.0,58,0.00,,,0.00,,2013-03-23 03:53:00,